| time (UTC) | temp C | wind direction | speed KPH | gust KPH | rain 1hr cm | rain 24hr cm | rain mn cm | humidity % | barometer mb |
| 20260906095542 | 25 | 14 | 0.0 | 0.0 | 0.00 | 0.00 | 0.00 | 71 | 1014.2 |
| 20260906095037 | 25 | 11 | 0.0 | 0.0 | 0.00 | 0.00 | 0.00 | 71 | 1014.5 |
| 20260906094536 | 25 | 10 | 0.0 | 0.0 | 0.00 | 0.00 | 0.00 | 70 | 1014.1 |
| 20260906094032 | 25 | 5 | 0.0 | 0.0 | 0.00 | 0.00 | 0.00 | 70 | 1014.2 |
| 20260906093528 | 26 | 12 | 0.0 | 0.0 | 0.00 | 0.00 | 0.00 | 69 | 1014.2 |
| 20260906093023 | 26 | 13 | 0.0 | 0.0 | 0.00 | 0.00 | 0.00 | 69 | 1014.1 |
| 20260906092522 | 26 | 17 | 0.0 | 0.0 | 0.00 | 0.00 | 0.00 | 69 | 1014.1 |
| 20260906092018 | 26 | 20 | 0.0 | 0.0 | 0.00 | 0.00 | 0.00 | 68 | 1014.0 |
| 20260906091514 | 26 | 20 | 0.0 | 0.0 | 0.00 | 0.00 | 0.00 | 68 | 1014.1 |
| 20260906091010 | 25 | 20 | 0.0 | 0.0 | 0.00 | 0.00 | 0.00 | 69 | 1013.9 |
| 20260906090505 | 26 | 21 | 0.0 | 0.0 | 0.00 | 0.00 | 0.00 | 69 | 1013.8 |
| 20260906090004 | 26 | 14 | 0.0 | 0.0 | 0.00 | 0.00 | 0.00 | 69 | 1014.1 |
| 20260906085504 | 26 | 13 | 0.0 | 0.0 | 0.00 | 0.00 | 0.00 | 68 | 1014.0 |
| 20260906085003 | 26 | 17 | 0.0 | 0.0 | 0.00 | 0.00 | 0.00 | 68 | 1014.0 |
| 20260906084458 | 26 | 15 | 0.0 | 0.0 | 0.00 | 0.00 | 0.00 | 69 | 1014.1 |
| 20260906083957 | 26 | 15 | 0.0 | 0.0 | 0.00 | 0.00 | 0.00 | 68 | 1014.1 |
| 20260906083453 | 26 | 18 | 0.0 | 0.0 | 0.00 | 0.00 | 0.00 | 68 | 1013.9 |
| 20260906082952 | 26 | 8 | 0.0 | 0.0 | 0.00 | 0.00 | 0.00 | 68 | 1014.0 |
| 20260906082447 | 26 | 16 | 0.0 | 0.0 | 0.00 | 0.00 | 0.00 | 67 | 1013.9 |
| 20260906081943 | 26 | 16 | 0.0 | 0.0 | 0.00 | 0.00 | 0.00 | 67 | 1013.7 |
| 20260906081443 | 26 | 14 | 0.0 | 0.0 | 0.00 | 0.00 | 0.00 | 66 | 1013.8 |
| 20260906080940 | 27 | 2 | 1.6 | 1.6 | 0.00 | 0.00 | 0.00 | 65 | 1013.8 |
| 20260906080436 | 27 | 13 | 0.0 | 0.0 | 0.00 | 0.00 | 0.00 | 63 | 1013.8 |
| 20260906075931 | 27 | 16 | 0.0 | 0.0 | 0.00 | 0.00 | 0.00 | 63 | 1013.8 |
| 20260906075426 | 27 | 16 | 0.0 | 0.0 | 0.00 | 0.00 | 0.00 | 62 | 1013.9 |
| 20260906074921 | 27 | 16 | 0.0 | 0.0 | 0.00 | 0.00 | 0.00 | 62 | 1013.6 |
| 20260906074421 | 27 | 23 | 0.0 | 0.0 | 0.00 | 0.00 | 0.00 | 62 | 1013.6 |
| 20260906073920 | 27 | 20 | 0.0 | 0.0 | 0.00 | 0.00 | 0.00 | 62 | 1013.6 |
| 20260906073414 | 27 | 21 | 0.0 | 0.0 | 0.00 | 0.00 | 0.00 | 62 | 1013.8 |
| 20260906072911 | 27 | 22 | 0.0 | 0.0 | 0.00 | 0.00 | 0.00 | 62 | 1013.9 |
| 20260906072406 | 27 | 19 | 0.0 | 0.0 | 0.00 | 0.00 | 0.00 | 62 | 1013.7 |
| 20260906071902 | 27 | 19 | 0.0 | 0.0 | 0.00 | 0.00 | 0.00 | 61 | 1013.9 |
| 20260906071357 | 27 | 25 | 0.0 | 0.0 | 0.00 | 0.00 | 0.00 | 61 | 1013.9 |
| 20260906070853 | 27 | 20 | 0.0 | 0.0 | 0.00 | 0.00 | 0.00 | 61 | 1014.0 |
| 20260906070349 | 27 | 19 | 0.0 | 0.0 | 0.00 | 0.00 | 0.00 | 61 | 1013.9 |
| 20260906065844 | 28 | 12 | 0.0 | 0.0 | 0.00 | 0.00 | 0.00 | 60 | 1014.0 |
| 20260906065338 | 28 | 13 | 0.0 | 0.0 | 0.00 | 0.00 | 0.00 | 59 | 1014.0 |
| 20260906064834 | 28 | 21 | 0.0 | 0.0 | 0.00 | 0.00 | 0.00 | 58 | 1014.1 |
| 20260906064330 | 28 | 19 | 0.0 | 0.0 | 0.00 | 0.00 | 0.00 | 58 | 1014.0 |
| 20260906063824 | 28 | 19 | 0.0 | 0.0 | 0.00 | 0.00 | 0.00 | 56 | 1014.0 |
| 20260906063320 | 29 | 14 | 0.0 | 0.0 | 0.00 | 0.00 | 0.00 | 55 | 1014.0 |
| 20260906062815 | 29 | 22 | 0.0 | 0.0 | 0.00 | 0.00 | 0.00 | 55 | 1014.2 |
| 20260906062314 | 29 | 22 | 0.0 | 0.0 | 0.00 | 0.00 | 0.00 | 55 | 1014.0 |
| 20260906061810 | 29 | 7 | 1.6 | 1.6 | 0.00 | 0.00 | 0.00 | 54 | 1014.1 |
| 20260906061306 | 29 | 54 | 3.2 | 3.2 | 0.00 | 0.00 | 0.00 | 54 | 1013.9 |
| 20260906060801 | 29 | 32 | 1.6 | 1.6 | 0.00 | 0.00 | 0.00 | 54 | 1014.1 |
| 20260906060258 | 29 | 337 | 1.6 | 1.6 | 0.00 | 0.00 | 0.00 | 55 | 1014.2 |
| 20260906055754 | 29 | 9 | 0.0 | 0.0 | 0.00 | 0.00 | 0.00 | 54 | 1014.1 |
| 20260906055249 | 28 | 326 | 1.6 | 1.6 | 0.00 | 0.00 | 0.00 | 56 | 1014.1 |
| 20260906054744 | 29 | 16 | 0.0 | 0.0 | 0.00 | 0.00 | 0.00 | 57 | 1014.0 |
| 20260906054239 | 29 | 16 | 0.0 | 0.0 | 0.00 | 0.00 | 0.00 | 56 | 1013.9 |
| 20260906053736 | 29 | 9 | 0.0 | 0.0 | 0.00 | 0.00 | 0.00 | 57 | 1014.0 |
| 20260906053232 | 29 | 17 | 0.0 | 0.0 | 0.00 | 0.00 | 0.00 | 56 | 1014.1 |
| 20260906052726 | 30 | 17 | 0.0 | 0.0 | 0.00 | 0.00 | 0.00 | 56 | 1014.1 |
| 20260906052223 | 30 | 12 | 0.0 | 0.0 | 0.00 | 0.00 | 0.00 | 57 | 1014.1 |
| 20260906051720 | 30 | 14 | 0.0 | 0.0 | 0.00 | 0.00 | 0.00 | 56 | 1014.0 |
| 20260906051219 | 30 | 4 | 0.0 | 1.6 | 0.00 | 0.00 | 0.00 | 56 | 1014.2 |
| 20260906050714 | 29 | 80 | 1.6 | 1.6 | 0.00 | 0.00 | 0.00 | 58 | 1014.4 |
| 20260906050209 | 28 | 21 | 0.0 | 0.0 | 0.00 | 0.00 | 0.00 | 61 | 1014.2 |
| 20260906045708 | 28 | 47 | 1.6 | 1.6 | 0.00 | 0.00 | 0.00 | 61 | 1014.2 |
| 20260906045203 | 29 | 10 | 0.0 | 0.0 | 0.00 | 0.00 | 0.00 | 61 | 1013.9 |
| 20260906044659 | 29 | 10 | 0.0 | 0.0 | 0.00 | 0.00 | 0.00 | 60 | 1014.0 |
| 20260906044154 | 29 | 10 | 0.0 | 0.0 | 0.00 | 0.00 | 0.00 | 60 | 1014.0 |
| 20260906043650 | 29 | 11 | 0.0 | 0.0 | 0.00 | 0.00 | 0.00 | 59 | 1014.0 |
| 20260906043145 | 29 | 9 | 0.0 | 0.0 | 0.00 | 0.00 | 0.00 | 59 | 1014.0 |
| 20260906042640 | 30 | 11 | 0.0 | 0.0 | 0.00 | 0.00 | 0.00 | 58 | 1014.1 |
| 20260906042139 | 30 | 11 | 0.0 | 0.0 | 0.00 | 0.00 | 0.00 | 58 | 1014.0 |
| 20260906041629 | 30 | 12 | 0.0 | 0.0 | 0.00 | 0.00 | 0.00 | 58 | 1014.0 |
| 20260906041124 | 30 | 12 | 0.0 | 0.0 | 0.00 | 0.00 | 0.00 | 58 | 1014.1 |
| 20260906040619 | 30 | 16 | 0.0 | 0.0 | 0.00 | 0.00 | 0.00 | 58 | 1014.2 |
| 20260906040114 | 29 | 16 | 0.0 | 0.0 | 0.00 | 0.00 | 0.00 | 58 | 1014.2 |
| 20260906035609 | 29 | 16 | 0.0 | 0.0 | 0.00 | 0.00 | 0.00 | 58 | 1014.2 |
| 20260906035105 | 29 | 16 | 0.0 | 0.0 | 0.00 | 0.00 | 0.00 | 57 | 1014.0 |
| 20260906034559 | 30 | 12 | 0.0 | 0.0 | 0.00 | 0.00 | 0.00 | 57 | 1014.1 |
| 20260906034055 | 30 | 11 | 0.0 | 0.0 | 0.00 | 0.00 | 0.00 | 57 | 1014.0 |
| 20260906033550 | 30 | 17 | 0.0 | 0.0 | 0.00 | 0.00 | 0.00 | 56 | 1013.9 |
| 20260906033045 | 30 | 18 | 0.0 | 0.0 | 0.00 | 0.00 | 0.00 | 55 | 1013.9 |
| 20260906032542 | 30 | 11 | 0.0 | 0.0 | 0.00 | 0.00 | 0.00 | 55 | 1013.9 |
| 20260906032042 | 30 | 14 | 0.0 | 0.0 | 0.00 | 0.00 | 0.00 | 54 | 1013.8 |
| 20260906031537 | 30 | 15 | 0.0 | 0.0 | 0.00 | 0.00 | 0.00 | 54 | 1013.7 |
| 20260906031033 | 31 | 8 | 0.0 | 0.0 | 0.00 | 0.00 | 0.00 | 54 | 1013.8 |
| 20260906030532 | 31 | 13 | 0.0 | 0.0 | 0.00 | 0.00 | 0.00 | 53 | 1013.8 |
| 20260906030032 | 31 | 11 | 0.0 | 0.0 | 0.00 | 0.00 | 0.00 | 53 | 1013.7 |
| 20260906025532 | 31 | 15 | 0.0 | 0.0 | 0.00 | 0.00 | 0.00 | 53 | 1013.5 |
| 20260906025030 | 31 | 9 | 0.0 | 0.0 | 0.00 | 0.00 | 0.00 | 53 | 1013.5 |
| 20260906024526 | 31 | 11 | 0.0 | 0.0 | 0.00 | 0.00 | 0.00 | 52 | 1013.5 |
| 20260906024025 | 31 | 12 | 0.0 | 0.0 | 0.00 | 0.00 | 0.00 | 51 | 1013.4 |
| 20260906023522 | 31 | 21 | 0.0 | 0.0 | 0.00 | 0.00 | 0.00 | 52 | 1013.5 |
| 20260906023016 | 31 | 12 | 0.0 | 0.0 | 0.00 | 0.00 | 0.00 | 51 | 1013.4 |
| 20260906022512 | 31 | 15 | 0.0 | 0.0 | 0.00 | 0.00 | 0.00 | 51 | 1013.5 |
| 20260906022007 | 31 | 14 | 0.0 | 0.0 | 0.00 | 0.00 | 0.00 | 50 | 1013.3 |
| 20260906021502 | 31 | 13 | 0.0 | 0.0 | 0.00 | 0.00 | 0.00 | 50 | 1013.1 |
| 20260906020956 | 31 | 13 | 0.0 | 0.0 | 0.00 | 0.00 | 0.00 | 50 | 1013.3 |
| 20260906020450 | 32 | 11 | 0.0 | 0.0 | 0.00 | 0.00 | 0.00 | 49 | 1013.0 |
| 20260906015950 | 32 | 9 | 0.0 | 0.0 | 0.00 | 0.00 | 0.00 | 49 | 1013.0 |
| 20260906015449 | 32 | 7 | 0.0 | 0.0 | 0.00 | 0.00 | 0.00 | 49 | 1013.0 |
| 20260906014949 | 32 | 6 | 0.0 | 0.0 | 0.00 | 0.00 | 0.00 | 49 | 1013.0 |
| 20260906014449 | 32 | 7 | 0.0 | 0.0 | 0.00 | 0.00 | 0.00 | 48 | 1012.8 |
| 20260906013945 | 32 | 8 | 0.0 | 0.0 | 0.00 | 0.00 | 0.00 | 47 | 1012.8 |
| 20260906013440 | 32 | 9 | 0.0 | 0.0 | 0.00 | 0.00 | 0.00 | 47 | 1012.9 |
| 20260906012936 | 33 | 13 | 0.0 | 0.0 | 0.00 | 0.00 | 0.00 | 46 | 1012.8 |
| 20260906012431 | 33 | 6 | 0.0 | 1.6 | 0.00 | 0.00 | 0.00 | 45 | 1012.8 |
| 20260906011930 | 33 | 358 | 0.0 | 1.6 | 0.00 | 0.00 | 0.00 | 46 | 1012.6 |
| 20260906011426 | 33 | 8 | 0.0 | 0.0 | 0.00 | 0.00 | 0.00 | 45 | 1012.7 |
| 20260906010921 | 33 | 8 | 0.0 | 0.0 | 0.00 | 0.00 | 0.00 | 45 | 1012.5 |
| 20260906010416 | 33 | 14 | 0.0 | 0.0 | 0.00 | 0.00 | 0.00 | 44 | 1012.6 |
| 20260906005912 | 33 | 17 | 0.0 | 0.0 | 0.00 | 0.00 | 0.00 | 44 | 1012.6 |
| 20260906005412 | 34 | 10 | 0.0 | 0.0 | 0.00 | 0.00 | 0.00 | 43 | 1012.7 |
| 20260906004910 | 35 | 6 | 0.0 | 1.6 | 0.00 | 0.00 | 0.00 | 41 | 1012.5 |
| 20260906004405 | 35 | 12 | 0.0 | 0.0 | 0.00 | 0.00 | 0.00 | 40 | 1012.5 |
| 20260906003900 | 35 | 15 | 1.6 | 1.6 | 0.00 | 0.00 | 0.00 | 39 | 1012.5 |
| 20260906003355 | 36 | 11 | 0.0 | 1.6 | 0.00 | 0.00 | 0.00 | 39 | 1012.5 |
| 20260906002851 | 36 | 28 | 0.0 | 0.0 | 0.00 | 0.00 | 0.00 | 37 | 1012.4 |
| 20260906002350 | 36 | 21 | 0.0 | 0.0 | 0.00 | 0.00 | 0.00 | 37 | 1012.6 |
| 20260906001846 | 36 | 20 | 3.2 | 3.2 | 0.00 | 0.00 | 0.00 | 36 | 1012.5 |
| 20260906001341 | 37 | 13 | 1.6 | 1.6 | 0.00 | 0.00 | 0.00 | 36 | 1012.6 |
| 20260906000837 | 37 | 22 | 0.0 | 0.0 | 0.00 | 0.00 | 0.00 | 36 | 1012.6 |
| 20260906000336 | 37 | 18 | 3.2 | 3.2 | 0.00 | 0.00 | 0.00 | 35 | 1012.4 |
| 20260905235836 | 37 | 1 | 4.8 | 6.4 | 0.00 | 0.00 | 0.00 | 35 | 1012.3 |
| 20260905235331 | 37 | 359 | 3.2 | 4.8 | 0.00 | 0.00 | 0.00 | 34 | 1012.7 |
| 20260905234826 | 37 | 28 | 1.6 | 1.6 | 0.00 | 0.00 | 0.00 | 34 | 1012.7 |
| 20260905234321 | 37 | 18 | 0.0 | 1.6 | 0.00 | 0.00 | 0.00 | 34 | 1012.7 |
| 20260905233816 | 37 | 35 | 0.0 | 1.6 | 0.00 | 0.00 | 0.00 | 34 | 1012.6 |
| 20260905233311 | 38 | 59 | 6.4 | 6.4 | 0.00 | 0.00 | 0.00 | 33 | 1012.5 |
| 20260905232810 | 38 | 22 | 4.8 | 6.4 | 0.00 | 0.00 | 0.00 | 33 | 1012.4 |
| 20260905232307 | 38 | 17 | 0.0 | 0.0 | 0.00 | 0.00 | 0.00 | 33 | 1012.4 |
| 20260905231802 | 38 | 44 | 1.6 | 1.6 | 0.00 | 0.00 | 0.00 | 32 | 1012.5 |
| 20260905231257 | 38 | 103 | 4.8 | 9.7 | 0.00 | 0.00 | 0.00 | 32 | 1012.4 |
| 20260905230754 | 38 | 99 | 3.2 | 4.8 | 0.00 | 0.00 | 0.00 | 32 | 1012.4 |
| 20260905230251 | 38 | 10 | 1.6 | 1.6 | 0.00 | 0.00 | 0.00 | 33 | 1012.4 |
| 20260905225751 | 37 | 13 | 3.2 | 4.8 | 0.00 | 0.00 | 0.00 | 34 | 1012.4 |
| 20260905225246 | 37 | 9 | 6.4 | 9.7 | 0.00 | 0.00 | 0.00 | 34 | 1012.3 |
| 20260905224745 | 38 | 8 | 6.4 | 9.7 | 0.00 | 0.00 | 0.00 | 34 | 1012.5 |
| 20260905224241 | 38 | 69 | 1.6 | 1.6 | 0.00 | 0.00 | 0.00 | 34 | 1012.3 |
| 20260905223737 | 38 | 86 | 6.4 | 9.7 | 0.00 | 0.00 | 0.00 | 33 | 1012.5 |
| 20260905223234 | 38 | 84 | 3.2 | 4.8 | 0.00 | 0.00 | 0.00 | 34 | 1012.7 |
| 20260905222729 | 38 | 7 | 1.6 | 1.6 | 0.00 | 0.00 | 0.00 | 34 | 1012.5 |
| 20260905222228 | 38 | 24 | 3.2 | 3.2 | 0.00 | 0.00 | 0.00 | 32 | 1012.6 |
| 20260905221724 | 38 | 35 | 0.0 | 0.0 | 0.00 | 0.00 | 0.00 | 33 | 1012.6 |
| 20260905221221 | 38 | 31 | 4.8 | 4.8 | 0.00 | 0.00 | 0.00 | 33 | 1012.4 |
| 20260905220717 | 38 | 352 | 3.2 | 4.8 | 0.00 | 0.00 | 0.00 | 33 | 1012.7 |
| 20260905220212 | 37 | 17 | 0.0 | 0.0 | 0.00 | 0.00 | 0.00 | 33 | 1012.6 |
| 20260905215712 | 38 | 28 | 0.0 | 0.0 | 0.00 | 0.00 | 0.00 | 32 | 1012.7 |
| 20260905215208 | 38 | 7 | 3.2 | 4.8 | 0.00 | 0.00 | 0.00 | 31 | 1012.5 |
| 20260905214703 | 39 | 18 | 3.2 | 3.2 | 0.00 | 0.00 | 0.00 | 30 | 1012.8 |
| 20260905214159 | 40 | 44 | 4.8 | 4.8 | 0.00 | 0.00 | 0.00 | 30 | 1012.9 |
| 20260905213654 | 39 | 9 | 1.6 | 3.2 | 0.00 | 0.00 | 0.00 | 30 | 1012.9 |
| 20260905213149 | 39 | 27 | 0.0 | 1.6 | 0.00 | 0.00 | 0.00 | 31 | 1012.9 |
| 20260905212644 | 39 | 76 | 3.2 | 4.8 | 0.00 | 0.00 | 0.00 | 31 | 1013.0 |
| 20260905212144 | 39 | 198 | 6.4 | 6.4 | 0.00 | 0.00 | 0.00 | 31 | 1013.1 |
| 20260905211638 | 40 | 21 | 4.8 | 4.8 | 0.00 | 0.00 | 0.00 | 32 | 1013.1 |
| 20260905211134 | 40 | 10 | 0.0 | 1.6 | 0.00 | 0.00 | 0.00 | 31 | 1013.2 |
| 20260905210631 | 39 | 0 | 0.0 | 0.0 | 0.00 | 0.00 | 0.00 | 33 | 1013.3 |
| 20260905210125 | 39 | 3 | 3.2 | 3.2 | 0.00 | 0.00 | 0.00 | 32 | 1013.2 |
| 20260905205624 | 38 | 227 | 6.4 | 6.4 | 0.00 | 0.00 | 0.00 | 33 | 1013.2 |
| 20260905205124 | 38 | 103 | 6.4 | 6.4 | 0.00 | 0.00 | 0.00 | 34 | 1013.4 |
| 20260905204623 | 38 | 4 | 4.8 | 4.8 | 0.00 | 0.00 | 0.00 | 34 | 1013.3 |
| 20260905204119 | 38 | 21 | 4.8 | 6.4 | 0.00 | 0.00 | 0.00 | 33 | 1013.6 |
| 20260905203619 | 38 | 7 | 6.4 | 9.7 | 0.00 | 0.00 | 0.00 | 34 | 1013.5 |
| 20260905203114 | 38 | 351 | 0.0 | 1.6 | 0.00 | 0.00 | 0.00 | 34 | 1013.9 |
| 20260905202610 | 38 | 3 | 3.2 | 3.2 | 0.00 | 0.00 | 0.00 | 33 | 1013.9 |
| 20260905202105 | 38 | 301 | 3.2 | 3.2 | 0.00 | 0.00 | 0.00 | 33 | 1013.8 |
| 20260905201600 | 38 | 358 | 1.6 | 3.2 | 0.00 | 0.00 | 0.00 | 33 | 1014.1 |
| 20260905201100 | 38 | 58 | 1.6 | 1.6 | 0.00 | 0.00 | 0.00 | 33 | 1014.1 |
| 20260905200556 | 38 | 205 | 4.8 | 6.4 | 0.00 | 0.00 | 0.00 | 33 | 1014.0 |
| 20260905200050 | 38 | 140 | 3.2 | 3.2 | 0.00 | 0.00 | 0.00 | 34 | 1014.4 |
| 20260905195543 | 38 | 9 | 4.8 | 6.4 | 0.00 | 0.00 | 0.00 | 33 | 1014.1 |
| 20260905195039 | 38 | 19 | 8.0 | 11.3 | 0.00 | 0.00 | 0.00 | 34 | 1014.1 |
| 20260905194539 | 38 | 54 | 3.2 | 4.8 | 0.00 | 0.00 | 0.00 | 34 | 1014.2 |
| 20260905194038 | 38 | 57 | 3.2 | 3.2 | 0.00 | 0.00 | 0.00 | 34 | 1014.6 |
| 20260905193533 | 38 | 51 | 3.2 | 3.2 | 0.00 | 0.00 | 0.00 | 35 | 1014.5 |
| 20260905193029 | 38 | 24 | 3.2 | 4.8 | 0.00 | 0.00 | 0.00 | 35 | 1014.6 |
| 20260905192524 | 38 | 204 | 3.2 | 4.8 | 0.00 | 0.00 | 0.00 | 35 | 1014.8 |
| 20260905192020 | 37 | 7 | 1.6 | 1.6 | 0.00 | 0.00 | 0.00 | 36 | 1014.8 |
| 20260905191518 | 36 | 16 | 8.0 | 9.7 | 0.00 | 0.00 | 0.00 | 37 | 1014.9 |
| 20260905191018 | 37 | 16 | 3.2 | 3.2 | 0.00 | 0.00 | 0.00 | 36 | 1015.1 |
| 20260905190516 | 38 | 6 | 1.6 | 3.2 | 0.00 | 0.00 | 0.00 | 35 | 1015.1 |
| 20260905190015 | 38 | 21 | 1.6 | 3.2 | 0.00 | 0.00 | 0.00 | 35 | 1015.0 |
| 20260905185510 | 38 | 81 | 3.2 | 3.2 | 0.00 | 0.00 | 0.00 | 36 | 1015.0 |
| 20260905185009 | 37 | 359 | 1.6 | 3.2 | 0.00 | 0.00 | 0.00 | 37 | 1015.0 |
| 20260905184504 | 37 | 35 | 3.2 | 3.2 | 0.00 | 0.00 | 0.00 | 36 | 1015.4 |
| 20260905184003 | 37 | 47 | 1.6 | 3.2 | 0.00 | 0.00 | 0.00 | 36 | 1015.3 |
| 20260905183457 | 36 | 9 | 4.8 | 4.8 | 0.00 | 0.00 | 0.00 | 37 | 1015.5 |
| 20260905182952 | 36 | 117 | 3.2 | 4.8 | 0.00 | 0.00 | 0.00 | 38 | 1015.5 |
| 20260905182451 | 35 | 25 | 1.6 | 3.2 | 0.00 | 0.00 | 0.00 | 40 | 1015.6 |
| 20260905181947 | 36 | 7 | 6.4 | 6.4 | 0.00 | 0.00 | 0.00 | 41 | 1015.7 |
| 20260905181446 | 36 | 9 | 4.8 | 4.8 | 0.00 | 0.00 | 0.00 | 40 | 1015.7 |
| 20260905180946 | 37 | 345 | 6.4 | 9.7 | 0.00 | 0.00 | 0.00 | 39 | 1015.6 |
| 20260905180440 | 37 | 5 | 1.6 | 3.2 | 0.00 | 0.00 | 0.00 | 39 | 1015.8 |
| 20260905175936 | 36 | 31 | 3.2 | 3.2 | 0.00 | 0.00 | 0.00 | 39 | 1016.0 |
| 20260905175435 | 38 | 48 | 6.4 | 9.7 | 0.00 | 0.00 | 0.00 | 38 | 1015.9 |
| 20260905174931 | 38 | 354 | 3.2 | 4.8 | 0.00 | 0.00 | 0.00 | 37 | 1016.0 |
| 20260905174426 | 37 | 257 | 6.4 | 6.4 | 0.00 | 0.00 | 0.00 | 38 | 1016.2 |
| 20260905173921 | 37 | 45 | 1.6 | 1.6 | 0.00 | 0.00 | 0.00 | 38 | 1016.0 |
| 20260905173419 | 37 | 176 | 4.8 | 6.4 | 0.00 | 0.00 | 0.00 | 38 | 1016.4 |
| 20260905172918 | 37 | 258 | 3.2 | 4.8 | 0.00 | 0.00 | 0.00 | 38 | 1016.4 |
| 20260905172416 | 37 | 22 | 0.0 | 0.0 | 0.00 | 0.00 | 0.00 | 38 | 1016.3 |
| 20260905171912 | 37 | 45 | 1.6 | 3.2 | 0.00 | 0.00 | 0.00 | 39 | 1016.5 |
| 20260905171409 | 37 | 248 | 4.8 | 4.8 | 0.00 | 0.00 | 0.00 | 39 | 1016.5 |
| 20260905170905 | 37 | 102 | 8.0 | 9.7 | 0.00 | 0.00 | 0.00 | 38 | 1016.6 |
| 20260905170401 | 36 | 5 | 0.0 | 0.0 | 0.00 | 0.00 | 0.00 | 41 | 1016.8 |
| 20260905165901 | 36 | 27 | 1.6 | 1.6 | 0.00 | 0.00 | 0.00 | 42 | 1016.7 |
| 20260905165356 | 36 | 1 | 4.8 | 6.4 | 0.00 | 0.00 | 0.00 | 41 | 1016.7 |
| 20260905164856 | 36 | 273 | 4.8 | 6.4 | 0.00 | 0.00 | 0.00 | 42 | 1016.7 |
| 20260905164351 | 36 | 317 | 9.7 | 12.9 | 0.00 | 0.00 | 0.00 | 41 | 1016.6 |
| 20260905163846 | 35 | 25 | 3.2 | 4.8 | 0.00 | 0.00 | 0.00 | 42 | 1016.6 |
| 20260905163342 | 35 | 24 | 3.2 | 4.8 | 0.00 | 0.00 | 0.00 | 43 | 1016.7 |
| 20260905162838 | 35 | 323 | 6.4 | 11.3 | 0.00 | 0.00 | 0.00 | 43 | 1016.6 |
| 20260905162338 | 35 | 62 | 3.2 | 3.2 | 0.00 | 0.00 | 0.00 | 43 | 1016.7 |
| 20260905161832 | 35 | 336 | 0.0 | 1.6 | 0.00 | 0.00 | 0.00 | 44 | 1016.9 |
| 20260905161332 | 35 | 16 | 1.6 | 1.6 | 0.00 | 0.00 | 0.00 | 44 | 1016.7 |
| 20260905160830 | 35 | 24 | 1.6 | 1.6 | 0.00 | 0.00 | 0.00 | 45 | 1016.7 |
| 20260905160325 | 35 | 144 | 3.2 | 4.8 | 0.00 | 0.00 | 0.00 | 44 | 1016.8 |
| 20260905155819 | 35 | 156 | 1.6 | 3.2 | 0.00 | 0.00 | 0.00 | 45 | 1016.9 |
| 20260905155318 | 35 | 353 | 6.4 | 9.7 | 0.00 | 0.00 | 0.00 | 45 | 1016.8 |
| 20260905154814 | 35 | 294 | 1.6 | 3.2 | 0.00 | 0.00 | 0.00 | 46 | 1016.8 |
| 20260905154309 | 34 | 354 | 3.2 | 4.8 | 0.00 | 0.00 | 0.00 | 47 | 1016.8 |
| 20260905153804 | 33 | 6 | 4.8 | 6.4 | 0.00 | 0.00 | 0.00 | 47 | 1016.6 |
| 20260905153301 | 33 | 216 | 4.8 | 6.4 | 0.00 | 0.00 | 0.00 | 48 | 1016.7 |
| 20260905152759 | 33 | 336 | 6.4 | 6.4 | 0.00 | 0.00 | 0.00 | 48 | 1016.7 |
| 20260905152259 | 33 | 281 | 3.2 | 6.4 | 0.00 | 0.00 | 0.00 | 48 | 1016.6 |
| 20260905151754 | 33 | 291 | 4.8 | 6.4 | 0.00 | 0.00 | 0.00 | 48 | 1016.6 |
| 20260905151250 | 33 | 5 | 0.0 | 1.6 | 0.00 | 0.00 | 0.00 | 48 | 1016.5 |
| 20260905150750 | 33 | 209 | 4.8 | 6.4 | 0.00 | 0.00 | 0.00 | 48 | 1016.6 |
| 20260905150249 | 33 | 289 | 4.8 | 4.8 | 0.00 | 0.00 | 0.00 | 49 | 1016.5 |
| 20260905145747 | 33 | 192 | 9.7 | 14.5 | 0.00 | 0.00 | 0.00 | 49 | 1016.6 |
| 20260905145242 | 33 | 15 | 3.2 | 3.2 | 0.00 | 0.00 | 0.00 | 49 | 1016.6 |
| 20260905144740 | 33 | 240 | 3.2 | 3.2 | 0.00 | 0.00 | 0.00 | 50 | 1016.2 |
| 20260905144236 | 32 | 21 | 3.2 | 3.2 | 0.00 | 0.00 | 0.00 | 50 | 1016.4 |
| 20260905143730 | 32 | 233 | 3.2 | 4.8 | 0.00 | 0.00 | 0.00 | 51 | 1016.6 |
| 20260905143229 | 31 | 306 | 8.0 | 11.3 | 0.00 | 0.00 | 0.00 | 52 | 1016.3 |
| 20260905142727 | 31 | 329 | 3.2 | 4.8 | 0.00 | 0.00 | 0.00 | 53 | 1016.4 |
| 20260905142223 | 31 | 212 | 3.2 | 4.8 | 0.00 | 0.00 | 0.00 | 52 | 1016.3 |
| 20260905141719 | 31 | 287 | 3.2 | 3.2 | 0.00 | 0.00 | 0.00 | 53 | 1016.4 |
| 20260905141214 | 31 | 202 | 3.2 | 4.8 | 0.00 | 0.00 | 0.00 | 54 | 1016.3 |
| 20260905140709 | 31 | 11 | 4.8 | 4.8 | 0.00 | 0.00 | 0.00 | 54 | 1016.3 |
| 20260905140209 | 30 | 286 | 6.4 | 9.7 | 0.00 | 0.00 | 0.00 | 54 | 1016.5 |
| 20260905135703 | 30 | 236 | 1.6 | 3.2 | 0.00 | 0.00 | 0.00 | 55 | 1016.6 |
| 20260905135200 | 30 | 115 | 3.2 | 4.8 | 0.00 | 0.00 | 0.00 | 56 | 1016.5 |
| 20260905134659 | 30 | 191 | 6.4 | 6.4 | 0.00 | 0.00 | 0.00 | 56 | 1016.6 |
| 20260905134158 | 30 | 92 | 1.6 | 1.6 | 0.00 | 0.00 | 0.00 | 57 | 1016.5 |
| 20260905133653 | 29 | 21 | 0.0 | 1.6 | 0.00 | 0.00 | 0.00 | 58 | 1016.4 |
| 20260905133153 | 29 | 157 | 3.2 | 3.2 | 0.00 | 0.00 | 0.00 | 59 | 1016.3 |
| 20260905132653 | 28 | 147 | 3.2 | 3.2 | 0.00 | 0.00 | 0.00 | 60 | 1016.2 |
| 20260905132148 | 28 | 185 | 6.4 | 6.4 | 0.00 | 0.00 | 0.00 | 61 | 1016.3 |
| 20260905131644 | 28 | 289 | 3.2 | 3.2 | 0.00 | 0.00 | 0.00 | 61 | 1016.0 |
| 20260905131144 | 28 | 84 | 3.2 | 4.8 | 0.00 | 0.00 | 0.00 | 61 | 1016.0 |
| 20260905130638 | 28 | 170 | 6.4 | 6.4 | 0.00 | 0.00 | 0.00 | 61 | 1016.1 |
| 20260905130133 | 28 | 209 | 3.2 | 4.8 | 0.00 | 0.00 | 0.00 | 61 | 1016.1 |
| 20260905125626 | 28 | 220 | 4.8 | 4.8 | 0.00 | 0.00 | 0.00 | 62 | 1015.9 |
| 20260905125122 | 28 | 89 | 3.2 | 3.2 | 0.00 | 0.00 | 0.00 | 62 | 1016.0 |
| 20260905124619 | 27 | 186 | 3.2 | 4.8 | 0.00 | 0.00 | 0.00 | 62 | 1015.7 |
| 20260905124114 | 27 | 14 | 0.0 | 0.0 | 0.00 | 0.00 | 0.00 | 63 | 1015.8 |
| 20260905123609 | 27 | 28 | 0.0 | 0.0 | 0.00 | 0.00 | 0.00 | 63 | 1015.6 |
| 20260905123107 | 27 | 26 | 0.0 | 1.6 | 0.00 | 0.00 | 0.00 | 64 | 1015.7 |
| 20260905122601 | 27 | 22 | 0.0 | 1.6 | 0.00 | 0.00 | 0.00 | 64 | 1015.6 |
| 20260905122100 | 27 | 25 | 0.0 | 0.0 | 0.00 | 0.00 | 0.00 | 65 | 1015.6 |
| 20260905121555 | 26 | 17 | 0.0 | 0.0 | 0.00 | 0.00 | 0.00 | 66 | 1015.7 |
| 20260905121050 | 26 | 26 | 0.0 | 1.6 | 0.00 | 0.00 | 0.00 | 66 | 1015.5 |
| 20260905120549 | 26 | 23 | 0.0 | 0.0 | 0.00 | 0.00 | 0.00 | 65 | 1015.4 |
| 20260905120045 | 27 | 15 | 0.0 | 0.0 | 0.00 | 0.00 | 0.00 | 65 | 1015.4 |
| 20260905115543 | 27 | 70 | 1.6 | 1.6 | 0.00 | 0.00 | 0.00 | 65 | 1015.4 |
| 20260905115039 | 27 | 22 | 1.6 | 3.2 | 0.00 | 0.00 | 0.00 | 65 | 1015.4 |
| 20260905114538 | 27 | 132 | 3.2 | 4.8 | 0.00 | 0.00 | 0.00 | 65 | 1015.3 |
| 20260905114037 | 27 | 302 | 3.2 | 3.2 | 0.00 | 0.00 | 0.00 | 64 | 1015.3 |
| 20260905113532 | 27 | 43 | 0.0 | 1.6 | 0.00 | 0.00 | 0.00 | 64 | 1015.3 |
| 20260905113028 | 27 | 180 | 3.2 | 4.8 | 0.00 | 0.00 | 0.00 | 64 | 1015.2 |
| 20260905112523 | 27 | 324 | 1.6 | 1.6 | 0.00 | 0.00 | 0.00 | 64 | 1015.3 |
| 20260905112018 | 27 | 28 | 0.0 | 1.6 | 0.00 | 0.00 | 0.00 | 64 | 1015.4 |
| 20260905111513 | 27 | 221 | 3.2 | 4.8 | 0.00 | 0.00 | 0.00 | 63 | 1015.1 |
| 20260905111012 | 27 | 77 | 0.0 | 1.6 | 0.00 | 0.00 | 0.00 | 63 | 1015.2 |
| 20260905110511 | 27 | 348 | 1.6 | 1.6 | 0.00 | 0.00 | 0.00 | 63 | 1015.1 |
| 20260905110007 | 27 | 21 | 1.6 | 3.2 | 0.00 | 0.00 | 0.00 | 63 | 1015.3 |
| 20260905105501 | 27 | 256 | 1.6 | 1.6 | 0.00 | 0.00 | 0.00 | 63 | 1015.2 |
| 20260905105000 | 27 | 116 | 1.6 | 3.2 | 0.00 | 0.00 | 0.00 | 63 | 1015.1 |
| 20260905104456 | 27 | 250 | 4.8 | 4.8 | 0.00 | 0.00 | 0.00 | 62 | 1015.0 |
| 20260905103951 | 27 | 283 | 1.6 | 1.6 | 0.00 | 0.00 | 0.00 | 62 | 1015.0 |
| 20260905103446 | 27 | 220 | 3.2 | 3.2 | 0.00 | 0.00 | 0.00 | 62 | 1015.2 |
| 20260905102942 | 27 | 349 | 1.6 | 1.6 | 0.00 | 0.00 | 0.00 | 62 | 1015.2 |
| 20260905102438 | 27 | 333 | 1.6 | 1.6 | 0.00 | 0.00 | 0.00 | 62 | 1015.1 |
| 20260905101933 | 27 | 250 | 3.2 | 4.8 | 0.00 | 0.00 | 0.00 | 61 | 1015.0 |
| 20260905101431 | 27 | 276 | 3.2 | 3.2 | 0.00 | 0.00 | 0.00 | 61 | 1014.9 |
| 20260905100927 | 27 | 297 | 1.6 | 3.2 | 0.00 | 0.00 | 0.00 | 61 | 1015.1 |
| 20260905100422 | 27 | 51 | 3.2 | 3.2 | 0.00 | 0.00 | 0.00 | 61 | 1015.2 |